Weather History for Abbotsford, BC

Change the Weather History Date:

Tuesday, April 22, 2014

  Actual Average Record
Temperature  
Mean Temperature 50 °F -  
Max Temperature 55 °F 61 °F 75 °F (2005)
Min Temperature 45 °F 43 °F 32 °F (2008)
Degree Days  
Heating Degree Days 15    
Moisture  
Dew Point 40 °F    
Average Humidity 76    
Maximum Humidity 100    
Minimum Humidity 34    
Precipitation  
Precipitation 0.24 in 0.13 in - ()
Sea Level Pressure  
Sea Level Pressure 29.84 in    
Wind  
Wind Speed 9 mph ()    
Max Wind Speed 16 mph    
Max Gust Speed 25 mph    
Visibility 13.1 miles    
Events Rain    
Averages and records for this station are not official NWS values.
T = Trace of Precipitation, MM = Missing Value Source: Averaged Metar Reports

Daily Weather History Graph

Daily Weather History Graph

Search for Another Location

Airport:

Trip Planner

Search our weather history database for the weather conditions in past years. The results will help you decide how hot, cold, wet, or windy it might be!

Date:

Astronomy

Apr. 22, 2014 Rise Set
Actual Time 6:04 AM PDT 8:12 PM PDT
Civil Twilight 5:30 AM PDT 8:46 PM PDT
Nautical Twilight 4:47 AM PDT 9:29 PM PDT
Astronomical Twilight 3:59 AM PDT 10:18 PM PDT
Moon 2:33 AM PDT (4/22) 12:45 PM PDT (4/22)
Length of Visible Light 15h 16m
Length of Day
14h 07m
Last Quarter, 45% of the Moon is Illuminated
Apr 22
Last Quarter
Apr 28
New
May 6
First Quarter
May 14
Full
May 21
Last Quarter

Hourly Weather History & Observations

Time (PDT) Temp. Windchill Dew Point Humidity Pressure Visibility Wind Dir Wind Speed Gust Speed Precip Events Conditions
12:00 AM 46.4 °F 41.9 °F 46.4 °F 100% 29.83 in 10.0 mi SSW 9.2 mph - N/A   Overcast
1:00 AM 46.4 °F 42.9 °F 46.4 °F 100% 29.83 in 10.0 mi SSW 6.9 mph - N/A Rain Light Rain
2:00 AM 46.4 °F 42.4 °F 46.4 °F 100% 29.81 in 10.0 mi SSW 8.1 mph - N/A Rain Light Rain
3:00 AM 46.4 °F 41.1 °F 46.4 °F 100% 29.81 in 10.0 mi South 11.5 mph - N/A Rain Light Rain
4:00 AM 44.6 °F 40.2 °F 44.6 °F 100% 29.81 in 8.0 mi South 8.1 mph - N/A   Overcast
5:00 AM 45 °F - 45 °F 100% 29.81 in 10 mi South 12.7 mph - - Rain Light Rain
5:00 AM 44.6 °F 38.8 °F 44.6 °F 100% 29.80 in 10.0 mi South 11.5 mph 18.4 mph N/A Rain Light Rain
6:00 AM 44.6 °F 39.2 °F 44.6 °F 100% 29.81 in 10.0 mi South 10.4 mph - N/A Rain Light Rain
6:31 AM 44.6 °F 39.2 °F 44.6 °F 100% 29.81 in 10.0 mi South 10.4 mph - N/A   Overcast
7:00 AM 44.6 °F 39.2 °F 44.6 °F 100% 29.82 in 15.0 mi South 10.4 mph - N/A Rain Light Rain
7:30 AM 44.6 °F 40.2 °F 44.6 °F 100% 29.82 in 15.0 mi South 8.1 mph - N/A   Overcast
8:00 AM 46.4 °F 41.5 °F 44.6 °F 93% 29.83 in 15.0 mi SSW 10.4 mph - N/A   Overcast
9:00 AM 46.4 °F 41.9 °F 42.8 °F 87% 29.83 in 20.0 mi SSW 9.2 mph - N/A   Mostly Cloudy
10:00 AM 46.4 °F 39.8 °F 37.4 °F 71% 29.84 in 20.0 mi SSW 16.1 mph - N/A   Mostly Cloudy
11:00 AM 47 °F - 38 °F 61% 29.85 in 19 mi South 12.7 mph - -   Partly Cloudy
11:00 AM 48.2 °F - 37.4 °F 66% 29.85 in 20.0 mi South 11.5 mph - N/A   Mostly Cloudy
12:00 PM 50.0 °F - 37.4 °F 62% 29.86 in 25.0 mi South 15.0 mph 20.7 mph N/A   Mostly Cloudy
1:00 PM 50.0 °F - 37.4 °F 62% 29.86 in 25.0 mi SSW 15.0 mph - N/A   Mostly Cloudy
2:00 PM 53.6 °F - 39.2 °F 58% 29.86 in 25.0 mi South 16.1 mph 25.3 mph N/A   Mostly Cloudy
3:00 PM 53.6 °F - 37.4 °F 54% 29.87 in 25.0 mi SSW 15.0 mph - N/A   Scattered Clouds
4:00 PM 53.6 °F - 35.6 °F 51% 29.86 in 30.0 mi SSW 8.1 mph 19.6 mph N/A   Scattered Clouds
5:00 PM 54 °F - 34 °F 34% 29.86 in 28 mi SSW 10.4 mph - -   Scattered Clouds
5:00 PM 53.6 °F - 33.8 °F 47% 29.86 in 30.0 mi SW 9.2 mph - N/A   Partly Cloudy
6:00 PM 53.6 °F - 33.8 °F 47% 29.85 in 30.0 mi SW 11.5 mph - N/A   Partly Cloudy
7:00 PM 51.8 °F - 33.8 °F 50% 29.84 in 30.0 mi SW 9.2 mph - N/A   Scattered Clouds
8:00 PM 48.2 °F - 33.8 °F 58% 29.83 in 25.0 mi SW 3.5 mph - N/A   Mostly Cloudy
9:00 PM 48.2 °F - 35.6 °F 62% 29.85 in 20.0 mi South 6.9 mph - N/A   Mostly Cloudy
10:00 PM 48.2 °F - 37.4 °F 66% 29.85 in 10.0 mi South 6.9 mph - N/A   Mostly Cloudy
11:00 PM 47 °F - 39 °F 64% 29.85 in 10 mi South 10.4 mph - -   Mostly Cloudy
11:00 PM 46.4 °F 41.5 °F 39.2 °F 76% 29.85 in 10.0 mi South 10.4 mph - N/A   Mostly Cloudy